QTR253 OTHH-LTAI

Flight info

Callsign QTR253
Flight time N/A
Altitude 40000
Route TULUB2A/34L TULUB B457 NARMI J735 TAYMA N697 BPN H999 HIL N697 KITOT L550 NOVPA J981 DATOK L550 APLON DCT TOMBI
Aircraft A343/H-SDE2E3FGHIJ4J5M1RWXY/LB1D1

Departure

Time N/A
Airport Hamad International Airport (OTHH)

Arrival

Time 2026-05-05 23:50
Airport Antalya International Airport (LTAI)
Time Latitude Longitude Altitude Speed Heading
2026-05-05 22:28 32.51203 32.82317 39787 ft 405 kts 274°
2026-05-05 22:28 32.52042 32.77131 39849 ft 413 kts 287°
2026-05-05 22:29 32.54663 32.71554 39934 ft 427 kts 303°
2026-05-05 22:29 32.57887 32.67290 40029 ft 436 kts 310°
2026-05-05 22:30 32.59685 32.65222 40041 ft 440 kts 312°
2026-05-05 22:30 32.61623 32.63115 40052 ft 443 kts 312°
2026-05-05 22:31 32.64214 32.60268 40080 ft 447 kts 311°
2026-05-05 22:31 32.66768 32.57331 40047 ft 443 kts 310°
2026-05-05 22:32 32.70916 32.52434 40063 ft 437 kts 310°
2026-05-05 22:32 32.73013 32.49942 40044 ft 435 kts 310°
2026-05-05 22:33 32.75091 32.47470 40045 ft 435 kts 310°
2026-05-05 22:33 32.76930 32.45286 40063 ft 434 kts 310°
2026-05-05 22:34 32.79992 32.42035 40045 ft 441 kts 318°
2026-05-05 22:34 32.83268 32.39641 40061 ft 450 kts 328°
2026-05-05 22:35 32.86980 32.38021 40046 ft 458 kts 339°
2026-05-05 22:35 32.90597 32.36863 40055 ft 460 kts 339°
2026-05-05 22:36 32.93632 32.35927 40070 ft 461 kts 339°
2026-05-05 22:36 32.97191 32.34839 40051 ft 461 kts 339°
2026-05-05 22:37 33.00432 32.33842 40048 ft 460 kts 339°
2026-05-05 22:37 33.02528 32.33194 40047 ft 460 kts 339°
2026-05-05 22:38 33.05340 32.32320 40046 ft 459 kts 339°
2026-05-05 22:38 33.08205 32.31425 40046 ft 458 kts 339°
2026-05-05 22:39 33.13455 32.29782 40048 ft 458 kts 339°
2026-05-05 22:39 33.17878 32.28397 40072 ft 458 kts 339°
2026-05-05 22:40 33.24006 32.26475 40047 ft 459 kts 339°
2026-05-05 22:40 33.30181 32.24537 40045 ft 459 kts 339°
2026-05-05 22:41 33.36354 32.22596 40045 ft 459 kts 339°
2026-05-05 22:41 33.42521 32.20655 40077 ft 459 kts 339°
2026-05-05 22:42 33.48645 32.18724 40045 ft 458 kts 339°
2026-05-05 22:42 33.54578 32.16851 40045 ft 458 kts 339°
2026-05-05 22:43 33.60742 32.14902 40043 ft 458 kts 339°
2026-05-05 22:43 33.66773 32.12992 40043 ft 458 kts 339°
2026-05-05 22:44 33.72889 32.11052 40043 ft 457 kts 339°
2026-05-05 22:44 33.78766 32.09186 40037 ft 457 kts 339°
2026-05-05 22:45 33.84529 32.07351 40048 ft 456 kts 339°
2026-05-05 22:45 33.90350 32.04578 40041 ft 448 kts 330°
2026-05-05 22:46 33.95786 32.01592 40039 ft 447 kts 330°
2026-05-05 22:46 34.00714 31.98859 40036 ft 447 kts 330°
2026-05-05 22:47 34.03627 31.97238 40039 ft 447 kts 329°
2026-05-05 22:47 34.07315 31.95181 40039 ft 447 kts 329°
2026-05-05 22:48 34.12962 31.92029 40036 ft 447 kts 329°
2026-05-05 22:48 34.18567 31.88896 40053 ft 447 kts 329°
2026-05-05 22:49 34.24220 31.85730 40042 ft 448 kts 329°
2026-05-05 22:49 34.29875 31.82557 40025 ft 448 kts 329°
2026-05-05 22:50 34.35504 31.79396 40044 ft 448 kts 329°
2026-05-05 22:50 34.41097 31.76250 40047 ft 447 kts 329°
2026-05-05 22:51 34.46712 31.73086 40049 ft 447 kts 330°
2026-05-05 22:51 34.52286 31.69941 40037 ft 447 kts 329°
2026-05-05 22:52 34.57646 31.66912 40035 ft 447 kts 329°
2026-05-05 22:52 34.62255 31.64305 40037 ft 447 kts 329°
2026-05-05 22:53 34.67890 31.61112 40036 ft 447 kts 329°
2026-05-05 22:53 34.73523 31.57915 40043 ft 447 kts 330°
2026-05-05 22:54 34.79145 31.54721 40034 ft 446 kts 330°
2026-05-05 22:54 34.84768 31.51520 40034 ft 446 kts 330°
2026-05-05 22:55 34.90343 31.48342 40031 ft 445 kts 330°
2026-05-05 22:55 34.95942 31.45146 40032 ft 445 kts 330°
2026-05-05 22:56 35.01156 31.42165 40034 ft 444 kts 330°
2026-05-05 22:56 35.06019 31.39381 40030 ft 444 kts 330°
2026-05-05 22:57 35.11576 31.36195 40029 ft 444 kts 330°
2026-05-05 22:57 35.16902 31.33137 40029 ft 444 kts 330°
2026-05-05 22:58 35.21637 31.30415 40030 ft 444 kts 330°
2026-05-05 22:58 35.24410 31.28818 39918 ft 444 kts 330°
2026-05-05 22:58 35.26861 31.27408 39746 ft 439 kts 330°
2026-05-05 22:58 35.29460 31.25913 39513 ft 433 kts 330°
2026-05-05 22:59 35.31860 31.24528 38991 ft 436 kts 330°
2026-05-05 22:59 35.33575 31.23536 38625 ft 438 kts 330°
2026-05-05 22:59 35.35652 31.22336 38143 ft 438 kts 330°
2026-05-05 22:59 35.37445 31.21300 37705 ft 438 kts 330°
2026-05-05 23:00 35.41183 31.19139 36854 ft 438 kts 330°
2026-05-05 23:00 35.43000 31.18088 36470 ft 437 kts 330°
2026-05-05 23:00 35.45005 31.16928 35989 ft 437 kts 330°
2026-05-05 23:01 35.47566 31.15444 35369 ft 438 kts 330°
2026-05-05 23:01 35.50214 31.13908 34718 ft 440 kts 331°
2026-05-05 23:01 35.52851 31.12378 34000 ft 442 kts 331°
2026-05-05 23:01 35.55595 31.10785 33175 ft 444 kts 331°
2026-05-05 23:02 35.58310 31.09207 32382 ft 445 kts 331°
2026-05-05 23:02 35.61086 31.07594 31576 ft 446 kts 331°
2026-05-05 23:02 35.63861 31.05979 30760 ft 447 kts 332°
2026-05-05 23:02 35.66659 31.04350 29899 ft 448 kts 332°
2026-05-05 23:03 35.69483 31.02705 29018 ft 448 kts 332°
2026-05-05 23:03 35.72248 31.01094 28408 ft 442 kts 332°
2026-05-05 23:03 35.74988 30.99496 27832 ft 436 kts 332°
2026-05-05 23:03 35.77681 30.97924 27385 ft 429 kts 332°
2026-05-05 23:04 35.80309 30.96390 27247 ft 414 kts 332°
2026-05-05 23:04 35.82863 30.94898 27134 ft 399 kts 332°
2026-05-05 23:04 35.85334 30.93452 26985 ft 387 kts 332°
2026-05-05 23:04 35.87730 30.92048 26804 ft 376 kts 332°
2026-05-05 23:05 35.90062 30.90681 26641 ft 365 kts 332°
2026-05-05 23:05 35.92307 30.89364 26484 ft 355 kts 332°
2026-05-05 23:05 35.94511 30.88070 26331 ft 346 kts 332°
2026-05-05 23:05 35.96662 30.86807 26159 ft 337 kts 331°
2026-05-05 23:06 35.98725 30.85594 26017 ft 329 kts 331°
2026-05-05 23:06 36.00783 30.84383 25651 ft 329 kts 331°
2026-05-05 23:06 36.02863 30.83209 25270 ft 330 kts 335°
2026-05-05 23:06 36.04915 30.82517 24943 ft 334 kts 348°
2026-05-05 23:07 36.07248 30.82317 24801 ft 340 kts 354°
2026-05-05 23:07 36.09609 30.82240 24744 ft 343 kts 354°
2026-05-05 23:07 36.11973 30.82173 24562 ft 339 kts 354°
2026-05-05 23:07 36.14324 30.82107 24363 ft 340 kts 354°
2026-05-05 23:08 36.16697 30.82363 24202 ft 348 kts
2026-05-05 23:08 36.18929 30.83457 24049 ft 354 kts 26°
2026-05-05 23:08 36.20718 30.85281 23893 ft 364 kts 42°
2026-05-05 23:08 36.22230 30.87450 23764 ft 367 kts 45°
2026-05-05 23:09 36.23735 30.89719 23626 ft 365 kts 46°
2026-05-05 23:09 36.24478 30.90840 23516 ft 363 kts 45°
2026-05-05 23:09 36.25401 30.92231 23417 ft 361 kts 45°
2026-05-05 23:09 36.26163 30.93374 23320 ft 360 kts 45°
2026-05-05 23:10 36.27019 30.94651 23246 ft 358 kts 45°
2026-05-05 23:10 36.27761 30.95756 23147 ft 359 kts 45°
2026-05-05 23:10 36.28502 30.96846 23086 ft 359 kts 44°
2026-05-05 23:10 36.29580 30.98365 23009 ft 360 kts 44°
2026-05-05 23:11 36.31097 31.00615 22828 ft 364 kts 46°
2026-05-05 23:11 36.32697 31.03041 22668 ft 361 kts 46°
2026-05-05 23:11 36.34285 31.05440 22507 ft 361 kts 46°
2026-05-05 23:11 36.35855 31.07796 22383 ft 361 kts 46°
2026-05-05 23:12 36.37451 31.10187 22198 ft 358 kts 46°
2026-05-05 23:12 36.39035 31.12557 22013 ft 359 kts 46°
2026-05-05 23:12 36.40276 31.14412 21909 ft 357 kts 46°
2026-05-05 23:12 36.41310 31.15960 21804 ft 354 kts 46°
2026-05-05 23:13 36.42114 31.17164 21693 ft 354 kts 46°
2026-05-05 23:13 36.42928 31.18382 21608 ft 353 kts 46°
2026-05-05 23:13 36.44012 31.19996 21539 ft 351 kts 45°
2026-05-05 23:13 36.45440 31.22091 21382 ft 354 kts 44°
2026-05-05 23:14 36.46867 31.23694 21262 ft 347 kts 29°
2026-05-05 23:14 36.48408 31.24673 21151 ft 335 kts 13°
2026-05-05 23:14 36.49768 31.25072 21079 ft 330 kts
2026-05-05 23:14 36.51425 31.25256 20940 ft 331 kts 359°
2026-05-05 23:15 36.53563 31.25487 20853 ft 334 kts
2026-05-05 23:15 36.55867 31.25778 20723 ft 331 kts
2026-05-05 23:15 36.58158 31.26058 20519 ft 331 kts
2026-05-05 23:15 36.60455 31.26311 20398 ft 332 kts
2026-05-05 23:16 36.62744 31.26559 20229 ft 329 kts
2026-05-05 23:16 36.65035 31.26807 20083 ft 337 kts
2026-05-05 23:16 36.67462 31.27050 20012 ft 363 kts
2026-05-05 23:16 36.70031 31.27284 19929 ft 388 kts
2026-05-05 23:17 36.72807 31.27543 19866 ft 409 kts
2026-05-05 23:17 36.75598 31.27820 19703 ft 397 kts
2026-05-05 23:17 36.78339 31.28090 19245 ft 396 kts
2026-05-05 23:17 36.81098 31.28359 19114 ft 394 kts
2026-05-05 23:18 36.83773 31.28635 18900 ft 374 kts
2026-05-05 23:18 36.86262 31.28897 18735 ft 348 kts
2026-05-05 23:18 36.88665 31.29157 18610 ft 342 kts
2026-05-05 23:18 36.90962 31.29466 18419 ft 319 kts
2026-05-05 23:19 36.93136 31.29766 18308 ft 320 kts
2026-05-05 23:19 36.95370 31.30064 18254 ft 322 kts
2026-05-05 23:19 36.97586 31.30363 18005 ft 319 kts
2026-05-05 23:19 36.99767 31.30662 17829 ft 320 kts
2026-05-05 23:20 37.01981 31.30962 17686 ft 319 kts
2026-05-05 23:20 37.04176 31.31260 17543 ft 318 kts
2026-05-05 23:20 37.06380 31.31569 17429 ft 319 kts
2026-05-05 23:20 37.08575 31.31765 17265 ft 314 kts 354°
2026-05-05 23:21 37.10639 31.31052 17127 ft 308 kts 327°
2026-05-05 23:21 37.12145 31.29211 16983 ft 304 kts 299°
2026-05-05 23:21 37.12762 31.26712 16850 ft 304 kts 274°
2026-05-05 23:21 37.12912 31.24070 16648 ft 305 kts 283°
2026-05-05 23:22 37.13787 31.21698 16441 ft 300 kts 306°
2026-05-05 23:22 37.15323 31.19946 16193 ft 302 kts 328°
2026-05-05 23:22 37.17284 31.19087 15938 ft 307 kts 351°
2026-05-05 23:22 37.19409 31.19279 15695 ft 311 kts 14°
2026-05-05 23:23 37.21325 31.20548 15445 ft 316 kts 38°
2026-05-05 23:23 37.22763 31.22630 15209 ft 317 kts 51°
2026-05-05 23:23 37.24321 31.24561 14954 ft 313 kts 31°
2026-05-05 23:23 37.26306 31.25547 14725 ft 308 kts
2026-05-05 23:24 37.28424 31.25423 14494 ft 304 kts 343°
2026-05-05 23:24 37.30466 31.24741 14248 ft 306 kts 348°
2026-05-05 23:24 37.32595 31.24678 14011 ft 306 kts
2026-05-05 23:24 37.34687 31.24944 13777 ft 307 kts
2026-05-05 23:25 37.36802 31.25250 13508 ft 305 kts
2026-05-05 23:25 37.38901 31.25552 13241 ft 303 kts
2026-05-05 23:25 37.40987 31.25848 13050 ft 301 kts
2026-05-05 23:25 37.43072 31.26143 13018 ft 301 kts
2026-05-05 23:26 37.45158 31.26441 13018 ft 302 kts
2026-05-05 23:26 37.47241 31.26733 13019 ft 302 kts
2026-05-05 23:26 37.49330 31.26858 12917 ft 298 kts 353°
2026-05-05 23:26 37.51293 31.26141 12666 ft 295 kts 329°
2026-05-05 23:27 37.52833 31.24485 12408 ft 292 kts 306°
2026-05-05 23:27 37.53693 31.22233 12144 ft 289 kts 284°
2026-05-05 23:27 37.53792 31.19724 11908 ft 289 kts 265°
2026-05-05 23:27 37.53669 31.17189 11670 ft 290 kts 269°
2026-05-05 23:28 37.53366 31.14693 11413 ft 289 kts 252°
2026-05-05 23:28 37.52358 31.12511 11183 ft 293 kts 229°
2026-05-05 23:28 37.50711 31.11017 10941 ft 296 kts 205°
2026-05-05 23:28 37.48672 31.10496 10689 ft 298 kts 179°
2026-05-05 23:29 37.46688 31.11060 10439 ft 298 kts 155°
2026-05-05 23:29 37.44920 31.12465 10206 ft 297 kts 146°
2026-05-05 23:29 37.43008 31.13387 9955 ft 295 kts 175°
2026-05-05 23:29 37.40980 31.13303 9706 ft 292 kts 187°
2026-05-05 23:30 37.38968 31.13006 9436 ft 290 kts 188°
2026-05-05 23:30 37.37641 31.12810 9279 ft 289 kts 187°
2026-05-05 23:30 37.34962 31.12424 9215 ft 291 kts 187°
2026-05-05 23:30 37.32949 31.12141 9215 ft 291 kts 187°
2026-05-05 23:31 37.30938 31.11859 9212 ft 291 kts 187°
2026-05-05 23:31 37.28927 31.11575 9210 ft 291 kts 187°
2026-05-05 23:31 37.26912 31.11291 9213 ft 291 kts 187°
2026-05-05 23:31 37.24928 31.11013 9213 ft 291 kts 187°
2026-05-05 23:32 37.22917 31.10732 9211 ft 291 kts 187°
2026-05-05 23:32 37.20905 31.10456 9213 ft 291 kts 187°
2026-05-05 23:32 37.18896 31.10183 9208 ft 291 kts 187°
2026-05-05 23:32 37.16880 31.09907 9208 ft 291 kts 187°
2026-05-05 23:33 37.14876 31.09602 9197 ft 290 kts 191°
2026-05-05 23:33 37.12975 31.08796 9203 ft 288 kts 208°
2026-05-05 23:33 37.11259 31.07659 9200 ft 288 kts 210°
2026-05-05 23:33 37.09505 31.06455 9203 ft 288 kts 210°
2026-05-05 23:34 37.07744 31.05258 9203 ft 288 kts 210°
2026-05-05 23:34 37.06003 31.04081 9201 ft 288 kts 210°
2026-05-05 23:34 37.04246 31.02902 9201 ft 288 kts 210°
2026-05-05 23:34 37.02641 31.01823 9202 ft 288 kts 210°
2026-05-05 23:35 37.00877 31.00638 9194 ft 287 kts 210°
2026-05-05 23:35 36.99374 30.99629 9196 ft 287 kts 210°
2026-05-05 23:35 36.97611 30.98447 9196 ft 287 kts 210°
2026-05-05 23:35 36.96604 30.97773 9196 ft 286 kts 210°
2026-05-05 23:36 36.95318 30.96912 9194 ft 277 kts 210°
2026-05-05 23:36 36.93882 30.95954 9205 ft 266 kts 210°
2026-05-05 23:36 36.92286 30.94888 9203 ft 255 kts 210°
2026-05-05 23:36 36.91070 30.94089 9204 ft 254 kts 208°
2026-05-05 23:37 36.89407 30.93456 9199 ft 257 kts 189°
2026-05-05 23:37 36.87900 30.93263 9191 ft 258 kts 186°
2026-05-05 23:37 36.86171 30.93111 9195 ft 259 kts 186°
2026-05-05 23:37 36.84666 30.92979 9190 ft 259 kts 186°
2026-05-05 23:38 36.82896 30.92816 9191 ft 258 kts 186°
2026-05-05 23:38 36.81121 30.92649 9084 ft 254 kts 186°
2026-05-05 23:38 36.79846 30.92527 8976 ft 251 kts 186°
2026-05-05 23:38 36.78473 30.92394 8724 ft 253 kts 186°
2026-05-05 23:39 36.76815 30.92232 8475 ft 254 kts 186°
2026-05-05 23:39 36.75215 30.92079 8291 ft 253 kts 186°
2026-05-05 23:39 36.74089 30.91969 8208 ft 248 kts 186°
2026-05-05 23:39 36.72479 30.91809 7924 ft 242 kts 186°
2026-05-05 23:40 36.70872 30.91650 7508 ft 239 kts 186°
2026-05-05 23:40 36.69487 30.91512 7300 ft 240 kts 186°
2026-05-05 23:40 36.68268 30.91398 7110 ft 232 kts 186°
2026-05-05 23:40 36.66942 30.91269 6908 ft 222 kts 186°
2026-05-05 23:41 36.65963 30.91169 6752 ft 222 kts 186°
2026-05-05 23:41 36.65122 30.90988 6593 ft 223 kts 196°
2026-05-05 23:41 36.64269 30.90527 6350 ft 223 kts 216°
2026-05-05 23:41 36.63690 30.89831 6157 ft 219 kts 238°
2026-05-05 23:42 36.63268 30.88795 6100 ft 214 kts 251°
2026-05-05 23:42 36.62971 30.87857 6040 ft 218 kts 249°
2026-05-05 23:42 36.62505 30.86487 5993 ft 218 kts 248°
2026-05-05 23:42 36.62137 30.85193 5885 ft 213 kts 258°
2026-05-05 23:43 36.62221 30.83580 5685 ft 201 kts 292°
2026-05-05 23:43 36.62930 30.82263 5436 ft 189 kts 320°
2026-05-05 23:43 36.63968 30.81380 5243 ft 189 kts 330°
2026-05-05 23:43 36.65102 30.80588 5076 ft 185 kts 332°
2026-05-05 23:44 36.66084 30.79908 4907 ft 189 kts 331°
2026-05-05 23:44 36.67228 30.79108 4503 ft 189 kts 331°
2026-05-05 23:44 36.68372 30.78302 4008 ft 190 kts 331°
2026-05-05 23:44 36.69509 30.77497 3661 ft 182 kts 330°
2026-05-05 23:45 36.70648 30.76885 3563 ft 185 kts 346°
2026-05-05 23:45 36.71923 30.76690 3430 ft 185 kts
2026-05-05 23:45 36.73214 30.76821 3207 ft 180 kts
2026-05-05 23:45 36.74410 30.76971 2964 ft 170 kts
2026-05-05 23:46 36.75566 30.77132 2754 ft 165 kts
2026-05-05 23:46 36.76689 30.77300 2522 ft 161 kts
2026-05-05 23:46 36.77798 30.77459 2308 ft 160 kts
2026-05-05 23:46 36.78904 30.77620 2095 ft 161 kts
2026-05-05 23:47 36.80020 30.77783 1880 ft 162 kts
2026-05-05 23:47 36.81125 30.77944 1669 ft 156 kts
2026-05-05 23:47 36.81819 30.78046 1523 ft 147 kts
2026-05-05 23:47 36.82785 30.78187 1329 ft 133 kts
2026-05-05 23:48 36.83674 30.78317 1160 ft 126 kts
2026-05-05 23:48 36.84547 30.78445 995 ft 126 kts
2026-05-05 23:48 36.85713 30.78615 737 ft 128 kts
2026-05-05 23:48 36.86302 30.78716 630 ft 127 kts
2026-05-05 23:49 36.87171 30.78869 429 ft 124 kts
2026-05-05 23:49 36.88031 30.78989 312 ft 126 kts
2026-05-05 23:49 36.88894 30.79110 189 ft 121 kts
2026-05-05 23:49 36.89562 30.79202 181 ft 69 kts
2026-05-05 23:50 36.89912 30.79250 181 ft 41 kts
2026-05-05 23:50 36.90162 30.79284 182 ft 35 kts
2026-05-05 23:50 36.90365 30.79378 181 ft 29 kts 37°
2026-05-05 23:50 36.90406 30.79418 181 ft 4 kts 37°
2026-05-05 23:51 36.90449 30.79457 181 ft 4 kts 36°
2026-05-05 23:51 36.90480 30.79500 182 ft 5 kts 74°
2026-05-05 23:51 36.90457 30.79528 182 ft 8 kts 153°
2026-05-05 23:51 36.90373 30.79533 182 ft 16 kts 185°
2026-05-05 23:52 36.90241 30.79515 181 ft 20 kts 186°
2026-05-05 23:52 36.90094 30.79496 181 ft 22 kts 186°
2026-05-05 23:52 36.89939 30.79473 182 ft 23 kts 187°
2026-05-05 23:52 36.89773 30.79451 182 ft 24 kts 186°
2026-05-05 23:53 36.89602 30.79428 182 ft 26 kts 186°
2026-05-05 23:53 36.89423 30.79404 182 ft 27 kts 186°
2026-05-05 23:53 36.89673 30.79446 182 ft 5 kts 156°
2026-05-05 23:53 36.89670 30.79460 182 ft 2 kts 104°
2026-05-05 23:54 36.89662 30.79526 182 ft 15 kts 96°
2026-05-05 23:54 36.89649 30.79668 182 ft 15 kts 96°
2026-05-05 23:54 36.89636 30.79805 182 ft 17 kts 96°
2026-05-05 23:54 36.89623 30.79953 182 ft 10 kts 96°
2026-05-05 23:55 36.89622 30.79966 182 ft 2 kts 96°
2026-05-05 23:55 36.89620 30.79995 182 ft 5 kts 95°
2026-05-05 23:55 36.89631 30.80031 182 ft 5 kts 49°
2026-05-05 23:55 36.89666 30.80057 182 ft 7 kts 29°
2026-05-05 23:56 36.89681 30.80068 182 ft 3 kts 29°
2026-05-05 23:56 36.89697 30.80079 182 ft 0 kts 29°
2026-05-06 00:00 36.89697 30.80078 182 ft 0 kts 29°
2026-05-06 00:05 37.53677 31.22300 12168 ft 288 kts 285°
2026-05-06 00:06 37.53800 31.19834 11756 ft 289 kts 265°
2026-05-06 00:06 37.53672 31.17296 11616 ft 290 kts 270°
2026-05-06 00:06 37.53394 31.14803 11366 ft 289 kts 253°
2026-05-06 00:06 37.52418 31.12597 11131 ft 292 kts 230°
2026-05-06 00:07 37.50912 31.11095 11585 ft 431 kts 210°
2026-05-06 00:07 36.86589 30.78771 579 ft 127 kts
2026-05-06 00:07 36.87452 30.78910 402 ft 125 kts
2026-05-06 00:07 36.88334 30.79030 259 ft 126 kts
2026-05-06 00:08 36.89180 30.79150 181 ft 103 kts
2026-05-06 00:08 37.53143 31.23909 12965 ft 415 kts 300°